[[{"header":{"parameterUnit":"m.s-1","parameterCategory":1,"la1":30.2991,"la2":30.254,"lo1":-89.0895,"lo2":-89.0444,"dy":0.0017,"dx":0.0017,"nx":28,"ny":28,"refTime":"2023-04-03T21:00:00:Z","depth":0,"parameterNumber":2,"parameterNumberName":"U-component_of_WINDS"},"data":[0,0,0,0,0,0,0,0,0,0,0,0,0,0,0,0,0,0,0,0,0,0,0,0,0,0,0,0,0,0,0,0,0,0,0,0,0,0,0,0,0,0,0,0,0,0,0,0,0,0,0,0,0,0,0,0,0,0,-0.8011,-0.8012,0,-0.8036,-0.8036,-0.8036,-0.805,-0.805,-0.805,-0.8051,-0.8076,-0.8077,-0.8078,0,0,0,0,0,0,0,0,0,0,0,0,0,-0.7978,-0.7978,-0.8011,-0.8012,-0.8012,-0.8036,-0.8036,-0.8036,-0.805,-0.805,-0.805,-0.8051,-0.8076,-0.8077,-0.8078,0,0,0,0,0,0,0,0,0,0,0,0,0,-0.7996,-0.7979,-0.8011,-0.8022,-0.8023,-0.8035,-0.8036,-0.8036,-0.805,-0.805,-0.805,-0.8051,-0.8076,-0.8077,-0.8078,-0.8082,0,0,-0.8081,-0.8081,0,0,0,0,0,0,0,0,-0.7995,-0.7998,-0.802,-0.8021,-0.8022,-0.804,-0.8034,-0.8052,-0.805,-0.804,-0.8051,-0.8051,-0.8064,-0.8066,-0.8071,-0.8083,-0.8084,-0.8081,-0.8081,-0.8082,-0.8082,0,0,0,0,0,0,0,-0.7994,-0.7997,-0.8021,-0.802,-0.8022,-0.8026,-0.8028,-0.8037,-0.8051,-0.8041,-0.8042,-0.8045,-0.8065,-0.807,-0.8071,-0.8085,-0.8081,-0.8082,-0.8082,-0.8083,-0.8102,-0.8102,0,0,0,0,0,0,-0.7991,-0.7995,-0.802,-0.8022,-0.8009,-0.8026,-0.8029,-0.8034,-0.8051,-0.8054,-0.8044,-0.8045,-0.8068,-0.807,-0.8072,-0.8078,-0.8082,-0.8083,-0.8083,-0.8102,-0.8102,-0.8102,0,0,0,0,0,0,-0.799,-0.7993,-0.8019,-0.8009,-0.8012,-0.8027,-0.8032,-0.8035,-0.8039,-0.8054,-0.8057,-0.8047,-0.8068,-0.8071,-0.8079,-0.8079,-0.8083,-0.8084,-0.8102,-0.8102,-0.8102,-0.809,0,0,0,0,0,0,-0.7989,-0.7993,-0.7994,-0.8009,-0.8013,-0.8026,-0.8032,-0.8035,-0.8041,-0.8042,-0.8057,-0.8059,-0.8068,-0.8078,-0.808,-0.8081,-0.8085,-0.8102,-0.8102,-0.8102,-0.8091,-0.809,-0.8089,0,0,0,0,0,-0.7988,-0.799,-0.7994,-0.7997,-0.8015,-0.8026,-0.8028,-0.8038,-0.8041,-0.8043,-0.8052,-0.8059,-0.8079,-0.8079,-0.8082,-0.8082,-0.8102,-0.8102,-0.8102,-0.8091,-0.809,-0.8089,0,0,0,0,0,0,-0.7976,-0.7992,-0.7997,-0.8004,-0.8013,-0.8028,-0.8031,-0.8037,-0.8046,-0.8046,-0.8059,-0.8062,-0.8069,-0.8077,-0.8076,-0.8087,-0.8091,-0.8092,-0.8082,-0.8081,-0.808,-0.8078,-0.8086,0,0,0,0,0,-0.7974,-0.7981,-0.7995,-0.8,-0.8004,-0.8016,-0.8021,-0.8028,-0.8039,-0.8043,-0.8053,-0.8063,-0.8071,-0.8077,-0.8085,-0.8092,-0.8095,-0.8094,-0.8093,-0.8092,-0.8092,-0.8096,-0.8096,-0.8102,-0.8102,-0.8102,0,0,-0.797,-0.798,-0.7984,-0.7998,-0.8006,-0.8012,-0.802,-0.8027,-0.8032,-0.8044,-0.8052,-0.806,-0.8072,-0.8079,-0.8083,-0.8086,-0.8091,-0.8092,-0.8091,-0.8092,-0.8096,-0.8095,-0.8095,-0.8102,-0.8102,-0.8102,0,0,-0.7967,-0.7975,-0.798,-0.7987,-0.7999,-0.8007,-0.8008,-0.8022,-0.8028,-0.8036,-0.8045,-0.8052,-0.8066,-0.8074,-0.808,-0.808,-0.8086,-0.8082,-0.8078,-0.8081,-0.8081,-0.808,-0.808,-0.808,-0.8082,-0.8082,-0.8082,0,-0.7961,-0.7971,-0.7982,-0.7988,-0.7994,-0.8004,-0.8009,-0.8016,-0.8031,-0.8034,-0.8037,-0.8055,-0.8064,-0.8073,-0.8073,-0.8078,-0.8079,-0.808,-0.808,-0.808,-0.8079,-0.8079,-0.8079,-0.8082,-0.8082,-0.8082,-0.8082,0,-0.7963,-0.797,-0.7973,-0.7985,-0.7992,-0.7997,-0.8009,-0.8014,-0.802,-0.8028,-0.8037,-0.8047,-0.8058,-0.8061,-0.8068,-0.8072,-0.8073,-0.8077,-0.8082,-0.8078,-0.8078,-0.8078,-0.8081,-0.8081,-0.8081,-0.8081,0,0,-0.7953,-0.7971,-0.7972,-0.7977,-0.7991,-0.7997,-0.8003,-0.8013,-0.8017,-0.8027,-0.8032,-0.8044,-0.8048,-0.8055,-0.8063,-0.8066,-0.8064,-0.807,-0.8071,-0.8069,-0.8069,-0.8065,-0.8065,-0.8069,-0.8069,-0.8069,-0.8068,0,-0.7951,-0.7962,-0.7972,-0.7979,-0.7986,-0.7996,-0.8001,-0.801,-0.8018,-0.8025,-0.8034,-0.8042,-0.8047,-0.8051,-0.8054,-0.8064,-0.8065,-0.8064,-0.8074,-0.8074,-0.8071,-0.8065,-0.8061,-0.806,-0.8068,-0.8068,-0.8068,0,-0.7951,-0.7959,-0.7968,-0.798,-0.7983,-0.7988,-0.7998,-0.8004,-0.8015,-0.802,-0.8027,-0.8035,-0.8042,-0.8046,-0.8056,-0.8056,-0.806,-0.8066,-0.8066,-0.8067,-0.8071,-0.8066,-0.8059,-0.8059,-0.8068,-0.8068,-0.8068,0,-0.7943,-0.7956,-0.7962,-0.7967,-0.7982,-0.7985,-0.7991,-0.8002,-0.8007,-0.8016,-0.802,-0.803,-0.8035,-0.8043,-0.8053,-0.8055,-0.8062,-0.8067,-0.8067,-0.8066,-0.8068,-0.8067,-0.8061,-0.8071,-0.8071,-0.8071,-0.8071,0,-0.794,-0.7944,-0.7959,-0.7963,-0.7968,-0.7979,-0.7984,-0.7991,-0.8001,-0.8006,-0.8016,-0.8021,-0.8034,-0.8041,-0.805,-0.8057,-0.8059,-0.8064,-0.8066,-0.8063,-0.8062,-0.8066,-0.8066,-0.8071,-0.8071,-0.8071,-0.8071,0,-0.7931,-0.7941,-0.7949,-0.7962,-0.7965,-0.7969,-0.798,-0.7984,-0.7992,-0.8,-0.8002,-0.8015,-0.8023,-0.8034,-0.8047,-0.8052,-0.8058,-0.8062,-0.8054,-0.8056,-0.8055,-0.8055,-0.8051,-0.8051,-0.8061,-0.8061,-0.806,0,-0.7929,-0.7932,-0.7946,-0.795,-0.7956,-0.7963,-0.7968,-0.7979,-0.7984,-0.7996,-0.7999,-0.8008,-0.8016,-0.803,-0.804,-0.805,-0.8053,-0.8052,-0.8055,-0.8052,-0.8053,-0.8053,-0.8053,-0.8051,-0.805,-0.805,-0.805,0,-0.7923,-0.7928,-0.7935,-0.7944,-0.795,-0.7957,-0.7965,-0.7968,-0.7981,-0.7986,-0.7995,-0.8001,-0.8013,-0.8023,-0.8033,-0.804,-0.8047,-0.8049,-0.805,-0.8046,-0.8042,-0.8044,-0.8052,-0.8049,-0.8049,-0.8049,-0.8049,-0.8049,-0.7917,-0.7921,-0.7931,-0.7938,-0.7945,-0.7952,-0.7957,-0.7965,-0.7972,-0.7983,-0.7989,-0.7997,-0.8008,-0.8023,-0.803,-0.8037,-0.8039,-0.804,-0.804,-0.804,-0.8039,-0.8041,-0.8039,-0.8039,-0.8039,-0.8039,-0.8039,0,-0.7912,-0.7919,-0.7926,-0.7936,-0.7942,-0.7948,-0.7957,-0.7961,-0.7968,-0.7977,-0.7985,-0.7995,-0.8003,-0.8015,-0.8024,-0.8028,-0.8031,-0.803,-0.803,-0.8031,-0.8036,-0.8035,-0.8027,-0.8027,-0.8027,-0.8027,-0.8027,-0.8027,-0.791,-0.7916,-0.7922,-0.7931,-0.7938,-0.7946,-0.7951,-0.7957,-0.7964,-0.7975,-0.7982,-0.7989,-0.7998,-0.8009,-0.8017,-0.802,-0.8023,-0.8021,-0.8025,-0.803,-0.8031,-0.8032,-0.803,-0.8022,-0.8022,-0.8019,-0.8019,-0.8019]},{"header":{"parameterUnit":"m.s-1","parameterCategory":1,"la1":30.2991,"la2":30.254,"lo1":-89.0895,"lo2":-89.0444,"dy":0.0017,"dx":0.0017,"nx":28,"ny":28,"refTime":"2023-04-03T21:00:00:Z","depth":0,"parameterNumber":3,"parameterNumberName":"V-component_of_WINDS"},"data":[0,0,0,0,0,0,0,0,0,0,0,0,0,0,0,0,0,0,0,0,0,0,0,0,0,0,0,0,0,0,0,0,0,0,0,0,0,0,0,0,0,0,0,0,0,0,0,0,0,0,0,0,0,0,0,0,0,0,3.5494,3.5494,0,3.554,3.554,3.5541,3.5526,3.5525,3.5524,3.5523,3.5571,3.5573,3.5575,0,0,0,0,0,0,0,0,0,0,0,0,0,3.5394,3.5396,3.5494,3.5494,3.5495,3.554,3.5541,3.5541,3.5526,3.5525,3.5523,3.5522,3.557,3.5573,3.5575,0,0,0,0,0,0,0,0,0,0,0,0,0,3.5438,3.5396,3.5494,3.5493,3.5493,3.554,3.5541,3.5541,3.5526,3.5525,3.5523,3.5522,3.5569,3.5572,3.5576,3.5626,0,0,3.5586,3.5587,0,0,0,0,0,0,0,0,3.5436,3.5442,3.5492,3.5493,3.5493,3.5525,3.5523,3.557,3.5526,3.5513,3.5523,3.5521,3.5557,3.5561,3.5573,3.5629,3.5631,3.5586,3.5588,3.5589,3.559,0,0,0,0,0,0,0,3.5433,3.544,3.5512,3.5493,3.5494,3.549,3.5495,3.5532,3.5543,3.5514,3.5513,3.5519,3.5557,3.557,3.5574,3.5631,3.5586,3.5589,3.5591,3.5592,3.5734,3.5736,0,0,0,0,0,0,3.5429,3.5437,3.551,3.5513,3.546,3.5493,3.5499,3.5517,3.5543,3.5545,3.552,3.5518,3.5565,3.557,3.5576,3.5639,3.5589,3.5593,3.5594,3.5732,3.5734,3.5736,0,0,0,0,0,0,3.5427,3.5436,3.5509,3.5475,3.5484,3.5497,3.5517,3.5518,3.5531,3.5547,3.5549,3.5532,3.5564,3.5571,3.5615,3.564,3.5594,3.5597,3.573,3.5733,3.5735,3.5765,0,0,0,0,0,0,3.5424,3.5435,3.5454,3.5476,3.5486,3.5546,3.5519,3.552,3.5537,3.5535,3.5558,3.5561,3.5563,3.561,3.5618,3.5644,3.56,3.5728,3.5731,3.5734,3.5762,3.5768,3.5774,0,0,0,0,0,3.5421,3.546,3.5455,3.5464,3.551,3.5547,3.5553,3.5556,3.5539,3.5559,3.5569,3.556,3.5636,3.5614,3.5623,3.5651,3.5726,3.573,3.5734,3.5759,3.5767,3.5774,0,0,0,0,0,0,3.544,3.5463,3.5457,3.5505,3.5524,3.5545,3.5569,3.5564,3.5589,3.5585,3.5587,3.5593,3.5638,3.5648,3.5624,3.5703,3.5679,3.5685,3.5695,3.5702,3.5708,3.5705,3.5602,0,0,0,0,0,3.545,3.5479,3.5497,3.5537,3.5547,3.5557,3.5573,3.5573,3.5594,3.5602,3.5616,3.5636,3.5665,3.5684,3.5711,3.5763,3.5769,3.5787,3.5793,3.5798,3.5803,3.5834,3.5843,3.5749,3.5749,3.5749,0,0,3.5471,3.5487,3.5504,3.5541,3.5556,3.5587,3.5564,3.5596,3.5619,3.5607,3.565,3.566,3.5684,3.5732,3.5754,3.5742,3.583,3.5803,3.5806,3.5809,3.5839,3.5848,3.5856,3.5752,3.5751,3.5751,0,0,3.5525,3.5538,3.5575,3.5591,3.5615,3.5621,3.563,3.5652,3.5659,3.5701,3.5694,3.5721,3.577,3.5788,3.5803,3.5866,3.5859,3.5875,3.5907,3.5937,3.5944,3.5951,3.5976,3.5984,3.588,3.588,3.588,0,3.5548,3.5593,3.5594,3.5628,3.5645,3.5636,3.5674,3.5689,3.5721,3.5734,3.572,3.5783,3.5798,3.5851,3.5867,3.5879,3.5891,3.5872,3.5943,3.595,3.5956,3.5979,3.5988,3.5882,3.5882,3.5881,3.5881,0,3.5621,3.5652,3.5679,3.571,3.573,3.5766,3.5774,3.5794,3.5793,3.5801,3.5846,3.5864,3.5896,3.5908,3.5907,3.5963,3.5955,3.5942,3.5918,3.5967,3.5989,3.5998,3.5885,3.5884,3.5883,3.5883,0,0,3.5688,3.5721,3.5731,3.5746,3.5772,3.5797,3.5833,3.5865,3.5883,3.5905,3.5937,3.5979,3.5968,3.5986,3.5987,3.6013,3.6065,3.5997,3.5998,3.6011,3.613,3.6141,3.6151,3.606,3.6061,3.6063,3.6129,0,3.5745,3.5808,3.5812,3.587,3.59,3.5893,3.5924,3.5945,3.5954,3.5981,3.5991,3.6023,3.6004,3.6016,3.6041,3.6053,3.6089,3.6048,3.6091,3.6092,3.6087,3.6162,3.6174,3.6235,3.6137,3.6139,3.614,0,3.5821,3.5846,3.5908,3.5932,3.5945,3.5973,3.6004,3.603,3.6053,3.6058,3.6079,3.6077,3.6115,3.6089,3.6143,3.6115,3.6133,3.6141,3.6144,3.6149,3.612,3.6172,3.6254,3.6265,3.6153,3.6152,3.6151,0,3.5866,3.5916,3.596,3.5973,3.6002,3.6022,3.6035,3.6057,3.6077,3.6103,3.6116,3.6147,3.6164,3.6188,3.6195,3.6175,3.625,3.6224,3.6257,3.6257,3.6274,3.6273,3.6363,3.6282,3.6282,3.6282,3.6282,0,3.5931,3.597,3.5981,3.6008,3.6052,3.6055,3.6098,3.611,3.613,3.616,3.6155,3.6184,3.619,3.622,3.6225,3.6271,3.6278,3.6284,3.6286,3.6286,3.6285,3.6299,3.6295,3.6284,3.6284,3.6283,3.6283,0,3.599,3.5999,3.6047,3.6071,3.6078,3.6109,3.613,3.6156,3.6165,3.6204,3.6213,3.6227,3.6263,3.6271,3.6313,3.6317,3.6372,3.6368,3.6364,3.6364,3.6398,3.6396,3.6501,3.6516,3.6423,3.6424,3.6425,0,3.6032,3.6061,3.6089,3.6109,3.6123,3.6155,3.6175,3.6181,3.6202,3.6232,3.6256,3.6291,3.6319,3.6377,3.6391,3.6424,3.6423,3.6457,3.6427,3.6428,3.6426,3.6425,3.6429,3.6463,3.6464,3.6465,3.6466,0,3.6106,3.6109,3.6139,3.6171,3.6195,3.622,3.6244,3.6261,3.627,3.6294,3.6331,3.6353,3.6397,3.6433,3.6466,3.648,3.6476,3.6475,3.6485,3.6486,3.6484,3.6488,3.6382,3.6473,3.6472,3.6471,3.6471,3.6471,3.6159,3.6186,3.621,3.6244,3.6263,3.6286,3.6313,3.6326,3.6356,3.6393,3.6394,3.6434,3.6459,3.6504,3.652,3.6552,3.6542,3.6556,3.6559,3.6563,3.6568,3.6477,3.6558,3.6558,3.6558,3.6558,3.6558,0,3.6235,3.625,3.6281,3.6316,3.6343,3.6335,3.6362,3.6386,3.6421,3.6445,3.6473,3.6516,3.6551,3.6569,3.6604,3.6627,3.6626,3.6637,3.6636,3.664,3.6574,3.6563,3.6637,3.6637,3.6637,3.6637,3.6637,3.6637,3.6278,3.6324,3.633,3.6386,3.6402,3.6442,3.6458,3.648,3.6499,3.6548,3.6577,3.6588,3.661,3.6647,3.668,3.6684,3.6698,3.6711,3.6714,3.6652,3.6644,3.6637,3.6626,3.6713,3.6713,3.6778,3.6779,3.6779]}]]